{"data":{"norad_id":67801,"intl_designator":"2026-032E","name":"STARLINK-36773","alt_names":[],"object_type":"PAYLOAD","status":"ACTIVE","operator":null,"country":"US","launch_date":"2026-02-15","launch_site_code":"AFWTR","launch_vehicle":null,"mission":null,"orbit_class":"UNKNOWN","rcs_meters":null,"size_class":null,"mass_kg":null,"dimensions":null,"purposes":["comms"],"wikipedia_slug":null,"has_3d_model":false,"image_url":null,"decayed_at":null,"tle_current":{"epoch":"2026-05-25T01:55:49.737792Z","epoch_age_seconds":78813,"freshness":"FRESH","line1":"1 67801U 26032E   26145.08043678  .00013099  00000+0  40719-3 0  9994","line2":"2 67801  97.2862 333.1114 0001810  85.9633 274.1816 15.33457494 16661","mean_motion":15.33457494,"eccentricity":0.000181,"inclination_deg":97.2862,"raan_deg":333.1114,"arg_perigee_deg":85.9633,"mean_anomaly_deg":274.1816,"bstar":0.00040719,"rev_number":1666,"period_min":93.905439546536,"perigee_km":464.26730199355,"apogee_km":466.74470076005,"semimajor_km":6843.6430013768,"source":"CELESTRAK","updated_at":"2026-05-25T13:38:21.692643Z"}}}